KIND Airport Diagram

We have created a template for each of the higher traffic airports in the vZID airspace. They include KCMH, KCRW, KCVG, KDAY, KIND, KLEX and KSDF. You wil find usefull information including the airport diagram, weather, and specific airport procedures.

KIND Weather

[Source: ADDS]
METAR
KIND 170654Z 21006KT 10SM SCT250 03/M02 A3010 RMK AO2 SLP195 T00281022 =
TAF
KIND 170530Z 1706/1812 22010KT P6SM SCT250 FM171500 19005KT P6SM VCSH OVC130 FM171800 22005KT P6SM -SHRA OVC060 FM180000 18004KT P6SM OVC030 FM180500 21004KT 4SM BR OVC003 FM180900 22004KT 1/2SM FG OVC003 =

KIND Operations

Calm Wind Configuration is runways 23L and 23R

Runway 23L typically departs south and east

Runway 23R typicall departs north and west

New Scenery is available at FlightSim.com and Blueprint Simulations. On initial contact, arriving aircraft should notify the the controller which scenery they have.

FedEx pilots should expect runway 23L or 5R.

 

JSN Epic template designed by JoomlaShine.com